Weather History for NZCH - January, 2014

Change the Weather History Date:

Friday, January 17, 2014

  Actual Average Record
Temperature  
Mean Temperature 55 °F -  
Max Temperature 64 °F 69 °F 89 °F (2008)
Min Temperature 46 °F 51 °F 41 °F (2006)
Degree Days  
Heating Degree Days 10    
Growing Degree Days 5 (Base 50)    
Moisture  
Dew Point 43 °F    
Average Humidity 63    
Maximum Humidity 94    
Minimum Humidity 37    
Precipitation  
Precipitation 0.00 in - - ()
Sea Level Pressure  
Sea Level Pressure 29.64 in    
Wind  
Wind Speed 10 mph ()    
Max Wind Speed 30 mph    
Max Gust Speed 39 mph    
Visibility 6.2 miles    
Events      
Averages and records for this station are not official NWS values.
T = Trace of Precipitation, MM = Missing Value Source: Averaged Metar Reports

Daily Weather History Graph

Daily Weather History Graph

Search for Another Location

Airport or City:

Trip Planner

Search our weather history database for the weather conditions in past years. The results will help you decide how hot, cold, wet, or windy it might be!

Date:

Astronomy

Jan. 17, 2014 Rise Set
Actual Time 6:09 AM NZDT 9:09 PM NZDT
Civil Twilight 5:35 AM NZDT 9:43 PM NZDT
Nautical Twilight 4:51 AM NZDT 10:26 PM NZDT
Astronomical Twilight 4:00 AM NZDT 11:17 PM NZDT
Moon 9:16 PM NZDT (1/17) 7:01 AM NZDT (1/17)
Length of Visible Light 16h 07m
Length of Day
14h 59m
Waxing Gibbous, 99% of the Moon is Illuminated
Jan 17
Waxing Gibbous
Jan 24
Last Quarter
Jan 31
New
Feb 7
First Quarter
Feb 15
Full

Hourly Weather History & Observations

Time (NZDT) Temp. Windchill Dew Point Humidity Pressure Visibility Wind Dir Wind Speed Gust Speed Precip Events Conditions
12:00 AM 53.6 °F - 46.4 °F 77% 29.65 in 6.2 mi WSW 4.6 mph - N/A   Mostly Cloudy
12:30 AM 53.6 °F - 46.4 °F 77% 29.62 in 6.2 mi WSW 5.8 mph - N/A   Mostly Cloudy
1:00 AM 53.6 °F - 46.4 °F 77% 29.62 in 6.2 mi West 4.6 mph - N/A   Overcast
1:30 AM 53.6 °F - 46.4 °F 77% 29.62 in 6.2 mi WNW 4.6 mph - N/A   Mostly Cloudy
2:00 AM 53.6 °F - 46.4 °F 77% 29.62 in 6.2 mi NW 3.5 mph - N/A   Overcast
2:30 AM 53.6 °F - 48.2 °F 82% 29.62 in 6.2 mi NW 4.6 mph - N/A   Overcast
3:00 AM 53.6 °F - 48.2 °F 82% 29.62 in 6.2 mi WNW 4.6 mph - N/A   Overcast
3:30 AM 53.6 °F - 48.2 °F 82% 29.59 in 6.2 mi NW 4.6 mph - N/A   Mostly Cloudy
4:00 AM 51.8 °F - 48.2 °F 88% 29.59 in 6.2 mi NNW 4.6 mph - N/A   Mostly Cloudy
4:30 AM 51.8 °F - 48.2 °F 88% 29.59 in 6.2 mi NNW 2.3 mph - N/A   Mostly Cloudy
5:00 AM 50.0 °F - 46.4 °F 87% 29.56 in 6.2 mi NNW 5.8 mph - N/A   Scattered Clouds
5:30 AM 50.0 °F - 46.4 °F 87% 29.56 in 6.2 mi NW 3.5 mph - N/A   Partly Cloudy
6:00 AM 46.4 °F 45.2 °F 44.6 °F 93% 29.56 in 6.2 mi NW 3.5 mph - N/A   Unknown
6:30 AM 46.4 °F 45.2 °F 44.6 °F 93% 29.56 in 6.2 mi NW 3.5 mph - N/A   Unknown
7:00 AM 46.4 °F - 44.6 °F 93% 29.56 in 6.2 mi WNW 2.3 mph - N/A   Unknown
7:30 AM 50.0 °F - 48.2 °F 94% 29.56 in 6.2 mi NW 2.3 mph - N/A   Unknown
8:00 AM 51.8 °F - 46.4 °F 82% 29.59 in 6.2 mi West 1.2 mph - N/A   Unknown
8:30 AM 55.4 °F - 44.6 °F 67% 29.59 in 6.2 mi Calm Calm - N/A   Unknown
9:00 AM 57.2 °F - 44.6 °F 63% 29.62 in 6.2 mi South 3.5 mph - N/A   Unknown
9:30 AM 59.0 °F - 44.6 °F 59% 29.62 in 6.2 mi SSW 1.2 mph - N/A   Partly Cloudy
10:00 AM 59.0 °F - 44.6 °F 59% 29.62 in 6.2 mi South 6.9 mph - N/A   Mostly Cloudy
10:30 AM 59.0 °F - 44.6 °F 59% 29.62 in 6.2 mi South 19.6 mph - N/A   Mostly Cloudy
11:00 AM 60.8 °F - 42.8 °F 52% 29.62 in 6.2 mi South 20.7 mph - N/A   Scattered Clouds
11:30 AM 62.6 °F - 42.8 °F 48% 29.62 in 6.2 mi South 19.6 mph - N/A   Partly Cloudy
12:00 PM 62.6 °F - 39.2 °F 42% 29.62 in 6.2 mi SSW 19.6 mph - N/A   Scattered Clouds
12:30 PM 60.8 °F - 39.2 °F 45% 29.62 in 6.2 mi South 23.0 mph - N/A   Mostly Cloudy
1:00 PM 62.6 °F - 37.4 °F 39% 29.62 in 6.2 mi SSW 24.2 mph - N/A   Scattered Clouds
1:30 PM 62.6 °F - 35.6 °F 37% 29.62 in 6.2 mi SSW 26.5 mph 39.1 mph N/A   Partly Cloudy
2:00 PM 64.4 °F - 37.4 °F 37% 29.62 in 6.2 mi SSW 29.9 mph - N/A   Scattered Clouds
2:30 PM 62.6 °F - 39.2 °F 42% 29.62 in 6.2 mi South 28.8 mph - N/A   Partly Cloudy
3:00 PM 60.8 °F - 39.2 °F 45% 29.62 in 6.2 mi South 27.6 mph 39.1 mph N/A   Unknown
3:30 PM 60.8 °F - 39.2 °F 45% 29.65 in 6.2 mi SSW 26.5 mph - N/A   Mostly Cloudy
4:00 PM 62.6 °F - 41.0 °F 45% 29.62 in 6.2 mi SSW 27.6 mph - N/A   Mostly Cloudy
4:30 PM 60.8 °F - 39.2 °F 45% 29.65 in 6.2 mi SSW 29.9 mph - N/A   Partly Cloudy
5:00 PM 62.6 °F - 41.0 °F 45% 29.65 in 6.2 mi SSW 26.5 mph - N/A   Scattered Clouds
5:30 PM 60.8 °F - 41.0 °F 48% 29.65 in 6.2 mi SW 26.5 mph - N/A   Unknown
6:00 PM 59.0 °F - 39.2 °F 48% 29.68 in 6.2 mi SSW 26.5 mph - N/A   Partly Cloudy
6:30 PM 57.2 °F - 41.0 °F 55% 29.68 in 6.2 mi South 18.4 mph - N/A   Scattered Clouds
7:00 PM 59.0 °F - 41.0 °F 51% 29.68 in 6.2 mi SSW 18.4 mph - N/A   Mostly Cloudy
7:30 PM 59.0 °F - 41.0 °F 51% 29.71 in 6.2 mi SSW 13.8 mph - N/A   Mostly Cloudy
8:00 PM 57.2 °F - 41.0 °F 55% 29.71 in 6.2 mi SSW 18.4 mph - N/A   Scattered Clouds
8:30 PM 55.4 °F - 41.0 °F 58% 29.71 in 6.2 mi SSW 19.6 mph - N/A   Partly Cloudy
9:00 PM 55.4 °F - 41.0 °F 58% 29.74 in 6.2 mi SSW 23.0 mph 34.5 mph N/A   Unknown
9:30 PM 53.6 °F - 41.0 °F 62% 29.74 in 6.2 mi SSW 18.4 mph - N/A   Unknown
10:00 PM 55.4 °F - 39.2 °F 54% 29.77 in 6.2 mi SSW 23.0 mph - N/A   Unknown
10:30 PM 53.6 °F - 41.0 °F 62% 29.80 in 6.2 mi SSW 19.6 mph - N/A   Unknown
11:00 PM 53.6 °F - 37.4 °F 54% 29.80 in 6.2 mi SSW 23.0 mph - N/A   Unknown
11:30 PM 53.6 °F - 35.6 °F 51% 29.83 in 6.2 mi SSW 21.9 mph - N/A   Unknown